Weather History for Detroit Metro, MI

Change the Weather History Date:

Monday, September 3, 2012

  Actual Average Record
Temperature  
Mean Temperature 78 °F 69 °F  
Max Temperature 89 °F 79 °F 100 °F (1953)
Min Temperature 66 °F 60 °F 43 °F (1976)
Degree Days  
Heating Degree Days 0 1  
Month to date heating degree days 0 3  
Since 1 July heating degree days 1 13  
Cooling Degree Days 13 5  
Month to date cooling degree days 35 15  
Year to date cooling degree days 1093 726  
Growing Degree Days 28 (Base 50)    
Moisture  
Dew Point 66 °F    
Average Humidity 70    
Maximum Humidity 87    
Minimum Humidity 53    
Precipitation  
Precipitation 0.00 in 0.10 in 3.21 in (1879)
Month to date precipitation T 0.32  
Year to date precipitation 18.96 22.75  
Snow  
Snow 0.00 in 0.00 in 0.00 in ()
Month to date snowfall 0.0 0.0  
Since 1 July snowfall 0.0 0.0  
Since 1 September snowfall 0.0 0.0  
Snow Depth 0.00 in    
Sea Level Pressure  
Sea Level Pressure 29.94 in    
Wind  
Wind Speed 5 mph (ENE)    
Max Wind Speed 13 mph    
Max Gust Speed 16 mph    
Visibility 10 miles    
Events      
T = Trace of Precipitation, MM = Missing Value Source: NWS Daily Summary

Daily Weather History Graph

Daily Weather History Graph

Search for Another Location

Airport:

Trip Planner

Search our weather history database for the weather conditions in past years. The results will help you decide how hot, cold, wet, or windy it might be!

Date:

Astronomy

Sep. 03, 2012 Rise Set
Actual Time 7:01 AM EDT 8:02 PM EDT
Civil Twilight 6:32 AM EDT 8:31 PM EDT
Nautical Twilight 5:58 AM EDT 9:05 PM EDT
Astronomical Twilight 5:22 AM EDT 9:41 PM EDT
Moon 9:16 PM EDT (9/3) 10:13 AM EDT (9/3)
Length of Visible Light 13h 59m
Length of Day
13h 01m
Waning Gibbous, 90% of the Moon is Illuminated
Sep 3
Waning Gibbous
Sep 8
Last Quarter
Sep 15
New
Sep 22
First Quarter
Sep 29
Full

Hourly Weather History & Observations

Time (EDT) Temp. Heat Index Dew Point Humidity Pressure Visibility Wind Dir Wind Speed Gust Speed Precip Events Conditions
12:53 AM 71.1 °F - 60.1 °F 68% 29.97 in 10.0 mi NNE 4.6 mph - N/A   Mostly Cloudy
1:53 AM 69.1 °F - 61.0 °F 75% 29.98 in 10.0 mi North 4.6 mph - N/A   Scattered Clouds
2:53 AM 69.1 °F - 61.0 °F 75% 29.96 in 10.0 mi North 5.8 mph - N/A   Partly Cloudy
3:53 AM 68.0 °F - 61.0 °F 78% 29.96 in 10.0 mi NNE 3.5 mph - N/A   Partly Cloudy
4:53 AM 66.9 °F - 61.0 °F 81% 29.96 in 10.0 mi North 3.5 mph - N/A   Partly Cloudy
5:53 AM 66.9 °F - 61.0 °F 81% 29.95 in 10.0 mi NNE 3.5 mph - N/A   Partly Cloudy
6:53 AM 66.0 °F - 61.0 °F 84% 29.95 in 10.0 mi North 6.9 mph - N/A   Partly Cloudy
7:53 AM 68.0 °F - 61.0 °F 78% 29.96 in 10.0 mi North 5.8 mph - N/A   Partly Cloudy
8:53 AM 72.0 °F - 62.1 °F 71% 29.96 in 10.0 mi NNE 6.9 mph - N/A   Partly Cloudy
9:53 AM 75.9 °F - 64.0 °F 67% 29.97 in 10.0 mi NE 6.9 mph - N/A   Clear
10:53 AM 79.0 °F - 66.9 °F 66% 29.95 in 10.0 mi ENE 6.9 mph - N/A   Clear
11:53 AM 82.0 °F 84.9 °F 68.0 °F 62% 29.95 in 10.0 mi East 6.9 mph - N/A   Partly Cloudy
12:53 PM 84.0 °F 87.0 °F 68.0 °F 58% 29.95 in 10.0 mi ESE 8.1 mph - N/A   Partly Cloudy
1:53 PM 87.1 °F 90.6 °F 68.0 °F 53% 29.94 in 10.0 mi East 5.8 mph - N/A   Partly Cloudy
2:53 PM 88.0 °F 92.1 °F 69.1 °F 53% 29.92 in 10.0 mi East 4.6 mph - N/A   Scattered Clouds
3:53 PM 88.0 °F 92.9 °F 70.0 °F 55% 29.91 in 10.0 mi East 9.2 mph - N/A   Scattered Clouds
4:53 PM 84.9 °F 89.4 °F 70.0 °F 61% 29.89 in 10.0 mi ENE 6.9 mph - N/A   Scattered Clouds
5:53 PM 87.1 °F 92.0 °F 70.0 °F 57% 29.88 in 10.0 mi East 6.9 mph - N/A   Scattered Clouds
6:53 PM 84.9 °F 89.4 °F 70.0 °F 61% 29.88 in 10.0 mi SSE 5.8 mph - N/A   Scattered Clouds
7:53 PM 81.0 °F 83.8 °F 68.0 °F 65% 29.89 in 10.0 mi SSE 10.4 mph - N/A   Scattered Clouds
8:53 PM 78.1 °F - 69.1 °F 74% 29.91 in 10.0 mi ESE 4.6 mph - N/A   Partly Cloudy
9:53 PM 75.9 °F - 71.1 °F 85% 29.92 in 8.0 mi Calm Calm - N/A   Partly Cloudy
10:53 PM 75.9 °F - 71.1 °F 85% 29.92 in 5.0 mi ESE 3.5 mph - N/A   Haze
11:53 PM 75.0 °F - 71.1 °F 87% 29.92 in 5.0 mi Calm Calm - N/A   Scattered Clouds